TELLICO Weather Reports


time (UTC)temp
F
wind
direction
speed
knots
gust
knots
rain 1hr
in
rain 24hr
in
rain mn
in
humidity
%
barometer
mb
20260505194550 76 109 0.0 6.1 0.00 0.00 0.00 45 1012.9
20260505193038 75 0 0.0 2.6 0.00 0.00 0.00 43 1013.2
20260505191551 75 0 0.0 3.5 0.00 0.00 0.00 44 1013.5
20260505190040 76 159 0.9 3.5 0.00 0.00 0.00 44 1013.6
20260505184541 76 0 0.9 5.2 0.00 0.00 0.00 45 1013.8
20260505183040 76 133 0.9 5.2 0.00 0.00 0.00 46 1014.2
20260505181538 75 296 0.0 6.1 0.00 0.00 0.00 44 1014.5
20260505180047 75 184 0.9 3.5 0.00 0.00 0.00 45 1014.6
20260505174542 75 300 0.9 3.5 0.00 0.00 0.00 47 1014.7
20260505173037 75 165 0.9 4.3 0.00 0.00 0.00 46 1015.1
20260505171538 75 163 0.9 4.3 0.00 0.00 0.00 49 1015.3
20260505170037 74 260 0.0 4.3 0.00 0.00 0.00 51 1015.6
20260505164537 74 144 2.6 9.6 0.00 0.00 0.00 47 1015.7
20260505163042 74 184 0.9 7.0 0.00 0.00 0.00 52 1016.0
20260505161538 74 0 0.9 3.5 0.00 0.00 0.00 52 1015.9
20260505153038 73 251 0.0 5.2 0.00 0.00 0.00 56 1015.7
20260505151536 71 147 0.9 1.7 0.00 0.00 0.00 56 1015.6
20260505124543 56 0 0.0 0.9 0.00 0.00 0.00 81 1015.6
20260505123053 54 0 0.0 0.9 0.00 0.00 0.00 84 1015.6
20260505121612 53 0 0.0 0.0 0.00 0.00 0.00 85 1015.4
20260505120037 53 0 0.0 0.0 0.00 0.00 0.00 84 1015.2
20260505114540 52 0 0.0 0.0 0.00 0.00 0.00 82 1015.1
20260505113038 52 0 0.0 0.0 0.00 0.00 0.00 80 1014.9
20260505111540 53 0 0.0 0.0 0.00 0.00 0.00 78 1014.5
20260505101542 55 0 0.0 0.0 0.00 0.00 0.00 73 1014.5
20260505100046 56 0 0.0 0.0 0.00 0.00 0.00 72 1014.5
20260505094541 57 0 0.0 0.0 0.00 0.00 0.00 70 1014.4
20260505093036 58 0 0.0 0.0 0.00 0.00 0.00 69 1014.4
20260505091537 58 0 0.0 0.9 0.00 0.00 0.00 69 1014.5
20260505090053 59 0 0.0 0.9 0.00 0.00 0.00 67 1014.3
20260505084625 59 0 0.0 0.9 0.00 0.00 0.00 67 1014.2
20260505083047 59 0 0.0 0.9 0.00 0.00 0.00 67 1014.1
20260505081542 59 205 0.0 0.9 0.00 0.00 0.00 66 1014.2
20260505080045 60 0 0.0 0.9 0.00 0.00 0.00 67 1014.1
20260505074534 60 0 0.0 0.9 0.00 0.00 0.00 66 1013.9
20260505073050 60 0 0.0 0.9 0.00 0.00 0.00 65 1014.1
20260505071543 61 0 0.0 2.6 0.00 0.00 0.00 65 1014.2
20260505070038 61 0 0.0 0.0 0.00 0.00 0.00 65 1014.1
20260505064537 61 0 0.0 0.0 0.00 0.00 0.00 66 1014.3
20260505063046 62 0 0.0 0.0 0.00 0.00 0.00 64 1014.2
20260505061541 62 0 0.0 0.9 0.00 0.00 0.00 64 1014.2
20260505060039 63 0 0.0 0.9 0.00 0.00 0.00 64 1014.2
20260505054558 63 0 0.0 0.9 0.00 0.00 0.00 62 1014.2
20260505053045 64 0 0.0 0.9 0.00 0.00 0.00 61 1014.3
20260505051542 64 0 0.0 2.6 0.00 0.00 0.00 61 1014.1
20260505041548 64 0 0.0 0.0 0.00 0.00 0.00 61 1013.7
20260505040042 64 0 0.0 0.0 0.00 0.00 0.00 60 1013.9
20260505034537 65 0 0.0 0.9 0.00 0.00 0.00 59 1013.8
20260505033038 66 0 0.0 0.9 0.00 0.00 0.00 59 1013.8
20260505031541 66 0 0.0 0.0 0.00 0.00 0.00 58 1014.0
20260505030054 67 0 0.0 0.9 0.00 0.00 0.00 56 1014.0
20260505024537 67 0 0.0 0.9 0.00 0.00 0.00 55 1014.0
20260505023037 68 0 0.0 0.9 0.00 0.00 0.00 54 1014.0
20260505021549 68 0 0.0 1.7 0.00 0.00 0.00 53 1014.0
20260505020050 69 186 0.0 2.6 0.00 0.00 0.00 53 1014.0
20260505014540 69 0 0.0 1.7 0.00 0.00 0.00 53 1013.8
20260505013037 70 0 0.0 2.6 0.00 0.00 0.00 52 1013.8
20260505011537 70 0 0.0 1.7 0.00 0.00 0.00 52 1013.6
20260505010059 70 0 0.0 2.6 0.00 0.00 0.00 53 1013.6
20260505004539 71 0 0.0 3.5 0.00 0.00 0.00 52 1013.5
20260505003047 71 0 0.0 0.9 0.00 0.00 0.00 52 1013.2
20260505001540 72 196 0.0 1.7 0.00 0.00 0.00 53 1013.2
20260505000043 72 0 0.0 1.7 0.00 0.00 0.00 52 1013.2
20260504234541 73 0 0.0 4.3 0.00 0.00 0.00 52 1013.3
20260504233045 74 0 0.0 0.9 0.00 0.00 0.00 50 1013.2
20260504231538 74 0 0.0 2.6 0.00 0.00 0.00 49 1013.1
20260504230046 75 0 0.0 2.6 0.00 0.00 0.00 47 1013.0
20260504224550 75 0 0.9 3.5 0.00 0.00 0.00 47 1013.0
20260504223039 75 313 0.0 2.6 0.00 0.00 0.00 48 1013.1
20260504221539 75 123 0.0 2.6 0.00 0.00 0.00 50 1013.0
20260504220040 76 0 0.0 3.5 0.00 0.00 0.00 50 1013.2
20260504214543 76 0 0.0 3.5 0.00 0.00 0.00 49 1013.1
20260504213034 77 172 0.9 4.3 0.00 0.00 0.00 48 1013.2
20260504211538 77 175 0.0 2.6 0.00 0.00 0.00 47 1013.3
20260504210052 77 0 0.0 4.3 0.00 0.00 0.00 47 1013.3
20260504204546 78 127 0.9 4.3 0.00 0.00 0.00 47 1013.5
20260504203042 78 0 1.7 6.1 0.00 0.00 0.00 45 1013.7
20260504201544 79 317 0.0 7.0 0.00 0.00 0.00 46 1013.7
20260504200050 79 195 0.9 5.2 0.00 0.00 0.00 45 1014.1